Temperature
16 16 16 16 16 16 16 16 16 16 16 16 16 16 16 16 16 16 16 16 16 16 16 16 16 16 16 16 16 16 16 16 16 16 16 16 16 16 16 16 16 16 16
16 16 16 16 16 16 16 16 16 16 16 16 16 16 15 15 15 15 16 15 15 15 15 15 16 15 15 16 16 16 16 16 16 16 16 16 16 16 15 15 16 16 16
16 16 16 16 16 16 16 16 16 16 16 15 15 15 15 15 15 15 15 15 15 15 15 15 15 15 15 15 15 15 15 15 15 15 15 15 15 15 15 15 15 15 15
16 16 16 16 16 16 16 16 16 15 15 15 15 15 15 15 15 15 15 15 15 15 15 15 15 15 15 15 15 15 15 15 15 15 15 15 15 15 15 15 15 15 15
16 16 16 16 16 16 16 15 15 15 15 15 15 15 15 15 15 15 15 15 15 15 15 15 15 15 15 15 14 14 15 15 15 15 15 15 15 15 15 15 15 15 15
16 16 16 16 16 16 15 15 15 15 15 15 15 15 14 14 14 14 14 14 14 14 14 14 15 15 14 14 14 14 14 14 14 14 14 14 14 15 15 15 15 15 15
16 16 16 16 15 15 15 15 15 15 15 15 15 14 14 14 14 14 14 14 14 14 14 14 14 14 14 14 14 14 14 14 14 14 14 14 14 14 14 14 14 14 14
16 16 16 15 15 15 15 15 15 15 15 15 15 15 14 14 14 14 14 14 14 14 14 14 14 14 14 14 14 14 14 14 14 14 14 14 14 14 14 14 14 14 14
16 16 15 15 15 15 15 15 15 15 15 15 15 15 15 14 14 13 13 14 14 14 14 14 14 14 14 14 14 14 14 14 14 14 14 14 14 14 14 14 14 14 14
15 15 15 15 15 15 15 15 15 15 15 15 15 15 15 15 14 13 13 13 13 13 13 14 14 14 14 14 14 14 14 14 14 14 14 14 14 14 14 14 14 14 14
15 15 15 15 15 15 15 15 15 15 15 15 15 15 15 15 15 14 13 13 13 13 13 13 13 13 13 13 13 13 14 14 14 14 14 14 14 14 13 13 13 13 13
15 15 15 15 15 15 15 15 15 15 15 15 15 15 15 15 15 15 14 13 13 13 13 13 13 13 13 13 13 13 13 13 14 14 14 14 13 13 13 13 13 13 13
15 15 15 15 15 15 15 15 15 15 15 15 15 15 15 15 15 15 15 14 13 13 13 13 13 13 13 13 13 13 13 13 13 13 13 13 13 13 13 13 13 13 13
15 15 15 15 15 15 15 15 15 15 15 15 15 15 15 15 15 15 15 14 14 13 13 13 13 13 13 13 13 13 13 13 13 13 13 13 13 13 13 13 13 13 13
15 15 15 15 15 15 15 15 15 15 15 15 15 15 15 15 15 15 14 14 14 14 13 13 13 13 13 13 13 13 13 13 13 13 13 13 13 13 13 13 13 13 13
15 15 15 15 15 15 15 15 15 15 15 15 15 15 15 15 14 14 14 14 14 14 14 13 13 12 12 12 12 12 12 13 12 13 13 13 13 13 13 13 12 12 12
16 16 15 15 15 15 15 15 15 15 15 15 15 15 15 15 14 14 14 14 14 14 14 13 13 12 12 12 12 12 12 12 12 12 12 12 12 12 12 12 12 12 12
16 16 16 15 15 15 15 15 15 15 15 15 15 15 15 15 14 14 14 14 14 14 14 13 13 12 12 12 12 12 12 12 12 12 12 12 12 12 12 12 12 12 12
16 16 16 15 15 15 15 15 15 15 15 15 15 15 15 14 14 14 14 14 14 14 13 13 13 13 12 12 12 12 12 12 12 11 11 11 11 11 11 11 11 11 11
16 16 15 15 15 15 15 15 15 15 15 15 15 14 14 14 14 14 14 14 14 14 13 13 13 13 12 12 12 12 12 12 12 11 11 11 11 11 11 11 11 11 11
16 15 15 15 15 15 15 15 15 15 15 15 14 14 14 14 14 14 14 14 14 13 13 13 13 13 12 12 12 12 12 12 12 11 11 11 11 11 11 11 10 10 10
16 15 15 15 15 15 15 15 15 15 15 15 15 14 14 14 14 14 14 14 13 13 13 13 13 13 12 12 12 12 12 12 11 11 11 11 11 11 10 10 10 10 10
16 15 15 15 15 15 15 15 15 15 15 15 14 14 14 14 14 14 14 13 13 13 13 13 13 13 12 12 12 12 12 11 11 11 11 11 11 10 10 10 10 10 9
15 15 15 15 15 15 15 15 15 15 14 14 14 14 14 14 14 14 14 13 13 13 13 13 13 12 12 12 12 12 11 11 11 11 11 10 10 10 10 10 9 9 9
15 15 15 15 15 15 15 15 14 14 14 14 14 14 14 14 14 13 13 13 13 13 13 12 12 12 12 12 11 11 11 11 11 11 10 10 10 10 10 9 9 9 9
15 15 15 15 15 15 15 15 14 14 14 14 14 14 14 14 14 13 13 13 13 13 13 12 12 12 12 11 11 11 11 11 11 10 10 10 10 9 9 9 9 8 8
Wind_Speed
2 2 1 1 2 3 4 4 5 5 4 5 6 8 7 7 8 8 8 10 10 10 10 10 10 10 10 9 9 9 9 9 9 10 10 9 9 9 10 10 9 10 9
4 3 2 2 2 4 5 6 6 5 5 6 6 7 6 7 8 8 8 8 10 11 11 11 11 11 10 10 10 10 10 10 10 9 9 9 9 9 10 10 10 10 10
6 4 3 2 3 5 7 7 7 6 6 6 5 5 6 7 7 7 8 8 8 10 11 11 11 11 12 12 11 10 10 10 10 10 10 10 9 9 9 10 10 10 10
7 5 3 2 5 7 6 5 4 5 5 5 4 4 4 5 6 6 7 8 8 8 10 12 12 12 12 12 12 10 10 10 9 10 9 9 9 10 10 10 10 10 10
7 6 4 4 6 5 4 4 4 4 5 5 5 5 4 4 4 6 6 7 8 8 9 11 12 13 12 12 12 11 11 10 10 10 10 10 10 10 10 10 11 11 11
7 7 5 5 6 4 4 4 5 4 4 4 6 6 5 4 5 5 5 6 7 8 8 9 9 10 12 12 11 11 11 10 10 10 10 10 10 10 10 11 11 11 12
6 6 4 4 4 4 3 5 4 5 3 4 5 5 5 5 5 4 4 5 6 7 8 8 8 8 9 11 12 11 11 11 10 10 10 10 10 10 10 10 11 11 12
6 6 5 3 3 4 4 4 4 3 2 2 3 3 3 4 4 4 3 3 4 6 6 7 8 8 9 9 10 12 11 11 11 10 10 10 10 10 10 10 10 11 12
5 6 5 5 4 4 4 3 4 5 3 1 1 4 3 2 1 3 4 3 3 4 4 6 7 7 8 8 9 10 11 11 10 10 10 10 10 10 10 10 10 11 11
4 5 6 5 4 3 4 3 4 3 4 2 0 1 2 4 3 1 3 3 3 3 3 4 5 7 7 7 8 10 10 10 10 10 10 10 10 10 10 10 10 10 11
2 4 5 5 4 3 3 3 4 3 3 3 2 1 2 3 3 3 1 1 3 3 2 3 4 5 6 6 7 8 10 10 10 10 10 10 10 10 10 10 10 10 11
1 2 4 4 4 3 3 3 4 4 3 2 2 2 3 3 3 3 3 1 0 2 2 2 3 3 4 5 6 8 9 10 10 10 10 10 10 10 10 10 10 10 10
1 1 2 3 3 3 3 3 3 3 3 3 3 2 2 2 3 4 4 2 1 1 2 2 2 2 3 4 5 7 8 9 9 9 10 10 10 10 10 10 10 10 10
2 2 3 3 3 4 4 4 3 2 2 3 3 3 2 2 3 4 4 4 2 1 2 2 2 2 3 3 4 6 7 8 9 8 8 9 9 10 10 10 10 10 10
3 3 3 3 3 3 4 4 3 2 3 2 2 3 2 2 2 2 3 4 5 2 1 1 1 2 2 2 4 5 5 7 8 9 9 8 8 9 9 9 9 10 10
3 5 4 3 3 3 4 4 3 3 4 2 2 3 3 2 3 3 3 3 3 4 2 1 1 1 0 2 3 3 4 6 7 8 8 8 8 8 8 9 9 10 10
4 4 4 4 4 3 4 4 3 4 4 3 3 3 3 3 3 3 3 3 3 4 3 0 1 1 1 1 2 2 3 3 4 6 7 7 7 7 7 7 8 8 9
3 4 4 4 4 4 4 4 4 4 4 3 2 3 3 3 3 3 3 3 3 3 4 2 0 1 0 0 1 1 2 2 2 4 5 5 6 6 6 6 7 7 7
3 4 5 5 4 4 4 4 4 4 3 3 3 4 3 4 3 2 3 3 2 2 3 3 1 0 1 1 1 2 2 3 3 3 3 4 5 5 5 5 5 6 6
4 4 4 5 5 4 4 4 4 4 3 2 2 3 4 5 5 4 3 3 3 3 3 3 1 0 0 1 1 1 2 2 2 3 3 3 4 4 4 4 4 4 4
5 5 5 4 4 4 4 4 4 4 4 3 2 2 3 5 6 6 5 4 4 3 3 2 1 1 1 1 1 1 0 2 2 2 2 2 3 3 4 4 4 4 4
4 5 5 5 4 4 7 8 6 4 4 3 3 2 2 3 5 6 7 7 7 6 4 3 2 1 2 2 1 1 0 1 2 2 1 2 1 2 3 3 4 4 4
5 5 5 5 5 4 7 8 7 5 4 3 3 3 3 3 4 3 4 5 4 5 7 6 4 3 3 3 3 1 1 1 2 2 1 2 2 2 3 4 4 4 4
5 5 5 5 5 4 7 8 8 5 4 3 3 4 4 2 3 5 4 3 2 1 2 3 4 4 3 3 4 3 3 1 1 2 1 1 2 2 3 4 5 4 4
5 5 5 5 5 4 6 7 8 4 3 3 3 3 4 3 4 7 5 4 2 1 0 2 3 3 2 2 4 3 2 1 1 2 1 1 1 2 2 2 4 5 5
6 6 5 5 5 4 5 7 8 4 4 2 2 2 4 5 6 7 5 5 3 2 1 2 2 1 1 0 2 3 3 2 1 2 2 1 1 1 2 2 3 4 5
Wind_Direction
125 118 102 82 87 106 106 98 88 82 75 79 88 98 92 89 88 81 75 74 72 71 72 74 72 74 71 67 63 57 53 48 46 43 42 43 44 41 37 34 30 28 28
133 122 105 89 91 105 107 106 101 93 83 84 85 94 94 96 92 85 78 74 73 71 68 70 69 68 68 64 63 58 53 48 45 43 45 45 45 41 38 35 32 30 28
127 118 107 94 101 111 106 98 91 88 89 86 81 87 90 90 91 85 79 78 73 69 67 67 63 62 61 60 59 57 52 47 44 45 46 45 43 41 40 37 35 33 31
119 109 103 106 114 112 106 99 94 89 84 83 77 72 76 84 88 88 85 79 72 67 65 66 62 58 56 54 53 52 50 47 47 48 47 45 44 43 41 39 37 35 34
117 110 108 112 110 103 103 115 101 105 102 93 86 70 59 64 74 88 82 79 76 72 67 62 60 56 54 50 47 46 46 47 49 49 48 47 45 44 42 41 40 38 37
119 117 114 110 107 99 96 107 108 92 104 105 90 73 51 46 59 66 74 73 72 75 69 64 58 49 49 48 45 43 44 47 48 49 49 47 46 44 44 43 45 43 40
122 119 114 107 110 112 124 125 114 101 99 109 91 65 40 38 46 47 60 66 65 69 68 64 58 51 43 42 42 43 40 43 46 48 47 46 45 47 46 46 47 45 42
122 130 132 131 124 119 117 120 121 116 120 121 118 102 60 22 20 36 41 59 55 63 64 62 61 55 47 40 38 41 39 39 44 46 47 48 49 49 50 51 50 48 45
129 134 140 137 131 131 137 140 140 139 146 169 135 135 136 170 8 10 28 40 42 48 56 61 60 54 49 43 37 36 38 39 42 44 46 47 49 52 56 55 55 52 48
125 136 138 137 140 140 144 151 143 146 141 153 6 82 144 147 141 87 9 13 29 42 44 63 58 50 48 46 41 37 37 37 39 42 44 47 49 55 58 58 57 53 50
108 125 134 135 139 143 146 139 131 134 145 156 158 120 93 82 102 130 134 348 11 7 28 57 59 50 47 47 43 39 41 40 40 41 44 47 49 54 57 57 55 52 50
68 120 132 132 137 139 143 145 138 137 145 136 132 130 140 140 150 134 143 152 44 337 4 32 45 44 42 45 42 42 44 44 44 44 46 48 50 51 54 54 53 51 51
171 185 137 133 136 139 139 135 132 143 146 138 140 137 139 152 150 136 135 147 128 324 356 6 11 32 38 45 42 42 45 46 46 47 49 49 49 49 49 50 50 49 49
189 174 147 141 140 136 131 124 119 136 129 137 132 129 122 119 130 142 146 143 118 20 17 336 339 9 27 52 45 45 46 46 44 45 49 51 51 50 49 49 48 46 46
168 152 142 134 130 125 125 119 115 119 117 119 124 119 113 111 119 126 135 144 142 139 342 303 326 329 19 62 55 58 51 48 45 46 48 52 53 53 51 50 46 44 45
155 145 144 137 123 114 115 116 118 121 117 113 118 111 103 104 106 106 123 125 129 143 163 254 257 274 67 87 62 62 53 46 45 48 52 54 55 54 54 52 49 47 46
161 158 155 146 138 136 124 123 122 117 115 102 97 119 124 118 109 109 114 106 105 117 136 250 335 358 66 57 53 49 37 34 38 46 51 52 52 52 50 50 50 51 49
175 167 156 149 151 146 139 140 141 132 128 126 124 119 126 126 117 118 118 118 125 130 137 142 19 16 19 100 68 37 24 23 25 30 40 43 45 46 47 48 47 45 43
161 151 145 152 151 146 145 147 142 136 135 140 144 145 150 136 135 133 134 131 129 116 115 134 145 1 351 20 36 12 23 13 12 5 13 24 28 32 37 39 37 36 36
159 152 153 153 147 144 145 146 141 140 136 134 143 155 160 159 167 162 152 147 129 108 108 116 118 52 341 334 56 20 -0 350 348 8 13 8 13 19 21 25 24 24 25
160 153 145 144 146 152 158 147 143 144 142 135 130 148 162 162 166 161 156 155 140 129 122 120 120 53 350 12 280 267 279 322 327 358 358 350 0 1 350 355 2 8 10
151 143 148 151 152 161 159 155 144 140 145 148 150 143 138 141 149 150 151 153 152 151 156 149 155 180 236 231 221 184 130 42 323 312 37 323 1 330 322 334 -0 11 13
158 152 157 153 153 166 162 156 151 142 145 152 157 151 135 132 132 133 131 130 141 151 157 160 165 195 204 212 182 173 171 174 234 278 86 312 335 317 307 324 345 356 2
162 162 165 162 157 172 165 162 156 139 135 146 154 156 150 148 152 145 131 115 105 110 163 159 176 199 203 192 183 184 183 173 309 332 122 257 311 301 317 315 338 346 341
166 168 164 165 164 178 175 168 153 141 137 148 155 154 157 161 163 151 137 136 119 340 61 159 177 189 182 161 155 115 100 92 332 313 345 169 294 312 323 316 326 342 341
172 168 164 171 173 184 183 176 162 150 152 159 147 157 161 159 157 155 152 153 163 220 129 76 66 32 29 67 151 152 161 149 179 281 292 156 289 352 324 317 328 338 342
Height
1546 1547 1547 1547 1547 1547 1548 1548 1548 1548 1549 1549 1549 1549 1549 1549 1549 1548 1548 1547 1547 1546 1546 1545 1544 1543 1542 1541 1540 1539 1538 1536 1535 1533 1530 1529 1529 1529 1528 1527 1526 1525 1524
1547 1548 1548 1548 1548 1549 1549 1549 1550 1550 1550 1550 1550 1550 1550 1550 1550 1549 1549 1548 1548 1547 1546 1546 1545 1544 1543 1542 1541 1540 1538 1537 1536 1534 1532 1531 1530 1530 1529 1527 1526 1525 1524
1549 1549 1549 1549 1549 1550 1550 1551 1551 1551 1551 1551 1551 1551 1551 1551 1551 1551 1550 1549 1549 1548 1547 1547 1546 1545 1544 1543 1542 1541 1539 1538 1536 1535 1534 1532 1531 1530 1529 1528 1527 1525 1524
1550 1550 1550 1550 1551 1551 1551 1552 1552 1553 1553 1553 1552 1552 1553 1553 1552 1552 1551 1551 1550 1549 1548 1548 1547 1546 1545 1544 1543 1542 1540 1539 1537 1536 1534 1533 1531 1530 1529 1528 1527 1526 1525
1551 1551 1551 1551 1552 1552 1552 1553 1553 1554 1554 1554 1554 1554 1554 1554 1554 1554 1553 1552 1551 1551 1550 1549 1548 1547 1546 1545 1544 1542 1541 1539 1538 1536 1534 1533 1532 1530 1529 1528 1527 1526 1525
1552 1552 1552 1552 1553 1553 1553 1554 1554 1555 1555 1555 1555 1555 1556 1556 1555 1555 1554 1554 1553 1552 1551 1550 1549 1548 1547 1546 1544 1543 1541 1540 1538 1536 1535 1533 1532 1530 1529 1528 1527 1526 1525
1552 1552 1553 1553 1554 1554 1554 1555 1555 1555 1556 1556 1556 1557 1557 1557 1557 1556 1556 1555 1555 1554 1553 1552 1551 1549 1548 1546 1545 1543 1542 1540 1538 1536 1535 1533 1531 1530 1529 1528 1527 1527 1526
1553 1553 1553 1554 1554 1555 1555 1556 1556 1556 1557 1557 1557 1557 1558 1560 1559 1558 1558 1557 1556 1555 1554 1553 1552 1551 1549 1547 1546 1544 1542 1541 1539 1537 1535 1533 1531 1529 1528 1527 1527 1527 1526
1553 1553 1554 1554 1554 1555 1555 1556 1556 1557 1557 1558 1558 1558 1558 1559 1559 1560 1559 1558 1558 1557 1556 1555 1553 1552 1550 1549 1547 1545 1543 1541 1539 1537 1535 1533 1531 1528 1527 1527 1528 1528 1527
1553 1554 1554 1555 1555 1555 1556 1556 1557 1557 1557 1558 1558 1558 1559 1559 1559 1560 1560 1559 1559 1558 1557 1556 1555 1553 1552 1550 1548 1546 1544 1542 1540 1538 1536 1534 1532 1530 1529 1528 1528 1529 1528
1553 1554 1554 1555 1555 1555 1556 1556 1557 1557 1557 1558 1558 1558 1558 1559 1559 1559 1560 1560 1560 1559 1558 1557 1556 1554 1553 1551 1549 1547 1545 1543 1541 1539 1537 1536 1534 1532 1531 1530 1530 1530 1529
1553 1554 1554 1555 1555 1555 1556 1556 1556 1557 1557 1557 1558 1558 1558 1559 1559 1559 1559 1560 1560 1560 1559 1558 1557 1555 1554 1552 1551 1549 1546 1544 1542 1540 1538 1537 1536 1534 1533 1532 1532 1531 1530
1553 1553 1554 1554 1555 1555 1556 1556 1556 1557 1557 1557 1558 1558 1558 1559 1559 1559 1559 1559 1559 1560 1559 1559 1558 1556 1555 1553 1552 1550 1548 1546 1544 1542 1540 1538 1537 1536 1535 1534 1533 1532 1531
1552 1553 1554 1554 1555 1555 1556 1556 1556 1557 1557 1557 1558 1558 1558 1559 1559 1559 1559 1559 1559 1560 1559 1559 1558 1557 1556 1555 1553 1551 1549 1547 1545 1543 1541 1540 1539 1537 1536 1535 1534 1533 1532
1552 1553 1553 1554 1555 1555 1556 1556 1556 1557 1557 1557 1558 1558 1558 1559 1559 1559 1559 1560 1560 1559 1559 1559 1558 1558 1557 1555 1554 1552 1550 1548 1546 1544 1543 1542 1540 1539 1538 1536 1535 1534 1533
1552 1552 1553 1554 1554 1555 1555 1556 1556 1556 1557 1557 1557 1558 1558 1559 1559 1559 1559 1559 1559 1559 1559 1559 1558 1558 1557 1556 1554 1553 1551 1550 1548 1546 1544 1543 1542 1540 1539 1538 1536 1535 1534
1551 1552 1553 1553 1554 1554 1555 1556 1556 1556 1556 1557 1557 1558 1558 1558 1558 1559 1559 1559 1559 1559 1558 1559 1558 1558 1557 1556 1555 1553 1552 1551 1549 1547 1546 1545 1543 1542 1540 1539 1538 1536 1535
1550 1551 1552 1553 1554 1554 1555 1555 1555 1556 1556 1556 1557 1557 1558 1558 1558 1558 1559 1559 1559 1559 1558 1558 1558 1558 1557 1556 1555 1554 1553 1552 1550 1549 1547 1546 1544 1543 1541 1540 1539 1537 1536
1550 1551 1551 1552 1553 1554 1554 1555 1555 1555 1556 1556 1556 1557 1557 1558 1558 1558 1558 1558 1558 1558 1558 1558 1557 1557 1557 1556 1555 1554 1553 1552 1551 1550 1548 1547 1546 1544 1542 1541 1540 1538 1537
1549 1550 1551 1551 1552 1553 1554 1554 1554 1555 1555 1555 1556 1556 1557 1557 1558 1558 1558 1558 1558 1558 1558 1558 1557 1557 1557 1556 1555 1554 1554 1553 1551 1550 1549 1548 1546 1545 1543 1542 1540 1539 1537
1547 1549 1550 1550 1551 1552 1553 1553 1554 1554 1554 1555 1555 1556 1556 1557 1557 1558 1558 1558 1558 1558 1558 1557 1557 1556 1556 1555 1555 1554 1553 1553 1551 1550 1549 1548 1547 1545 1544 1542 1540 1539 1537
1546 1547 1548 1549 1550 1551 1552 1552 1553 1553 1554 1554 1555 1555 1556 1556 1557 1557 1557 1558 1558 1557 1557 1557 1556 1556 1556 1555 1555 1554 1553 1552 1551 1551 1549 1548 1547 1545 1543 1542 1540 1539 1537
1544 1545 1547 1548 1549 1550 1551 1551 1552 1553 1553 1554 1554 1554 1555 1555 1556 1556 1557 1557 1557 1557 1557 1557 1556 1555 1555 1555 1554 1553 1553 1552 1551 1550 1548 1547 1546 1544 1543 1541 1540 1538 1536
1542 1544 1545 1546 1547 1548 1549 1550 1551 1551 1552 1553 1553 1554 1554 1555 1555 1556 1556 1556 1556 1556 1556 1555 1555 1555 1554 1554 1553 1553 1552 1551 1550 1549 1548 1546 1544 1543 1542 1541 1539 1537 1536
1540 1542 1543 1545 1546 1547 1548 1548 1549 1550 1550 1551 1552 1553 1553 1554 1554 1555 1555 1555 1555 1555 1555 1554 1554 1554 1553 1553 1552 1551 1550 1549 1548 1547 1546 1545 1543 1542 1540 1539 1537 1536 1534
1538 1540 1541 1543 1544 1545 1546 1546 1547 1548 1549 1549 1550 1551 1551 1552 1553 1553 1553 1553 1553 1553 1553 1553 1553 1552 1552 1551 1550 1550 1549 1548 1546 1545 1544 1543 1541 1540 1538 1537 1535 1534 1532